#timestamp,LO_Frequency,Hit,StdDev 
1595656815.6,286046974.8,Y
1595656835.5,286046995.8,P
1595656855.3,286046988.4,N
1595656875.1,286046980.9,N
1595656895.9,286046981.6,N
1595656915.7,286046981.1,N
1595656935.6,286046978.0,Y
1595656955.4,286046994.8,P
1595656975.3,286046988.8,N
1595656995.1,286046987.2,N
1595656996.0,286046987.2,Y
1595657015.8,286046998.8,P
1595657035.7,286046995.1,N
1595657055.5,286046997.9,N
1595657075.4,286047002.3,N
1595657095.2,286047005.5,N
1595657115.0,286047008.4,N
1595657115.9,286047008.4,N
1595657135.8,286047013.5,N
1595657155.6,286047010.9,N
1595657175.5,286047011.3,N
1595657195.3,286047013.1,N
1595657215.1,286047013.5,N
1595657235.9,286047008.9,N
1595657255.7,286047000.8,N
1595657275.5,286046996.2,N
1595657295.4,286046995.9,N
1595657315.2,286046992.0,N
1595657335.0,286046987.7,N
1595657335.9,286046987.7,N
1595657355.8,286046986.4,N
1595657375.6,286046982.2,N
1595657395.5,286046979.9,N
1595657415.3,286046981.4,N
1595657435.1,286046978.1,N
1595657455.9,286046971.4,N
1595657475.7,286046971.5,N
1595657495.5,286046968.0,N
1595657515.4,286046968.7,N
1595657535.2,286046971.9,N
1595657555.1,286046971.8,N
1595657556.0,286046971.8,N
1595657575.8,286046973.4,N
1595657595.6,286046972.7,N
1595657615.5,286046975.3,N
1595657635.3,286046973.3,N
1595657655.1,286046970.9,N
1595657675.9,286046969.5,N
1595657695.7,286046967.5,N
1595657715.6,286046965.3,N
1595657735.4,286046962.9,N
1595657755.2,286046962.0,N
1595657775.1,286046964.4,N
1595657776.0,286046964.4,Y
1595657795.8,286046990.0,P
1595657815.6,286046989.5,N
1595657835.5,286046989.5,N
1595657855.3,286046992.3,N
1595657875.2,286046991.6,N
1595657895.9,286046985.6,N
1595657915.7,286046982.9,Y
1595657935.6,286046994.6,P
1595657955.4,286046989.1,P
1595657975.2,286046989.0,P
1595657995.1,286046985.4,Y
1595657996.0,286046985.4,P
1595658015.8,286046990.3,P
1595658035.7,286046988.0,P
1595658055.5,286046983.7,Y
1595658075.3,286046997.8,P
1595658095.2,286046999.5,N
1595658115.0,286046996.5,N
1595658115.9,286046996.5,N
1595658135.8,286046992.5,N
1595658155.6,286046987.6,Y
1595658175.4,286046996.2,P
1595658195.3,286046999.4,N
1595658215.1,286047000.2,N
1595658235.9,286046998.5,N
1595658255.7,286046990.2,Y
1595658275.5,286046983.8,P
1595658295.4,286046978.2,P
1595658315.2,286046977.0,N
1595658335.0,286046976.6,N
1595658335.9,286046976.6,N
1595658355.8,286046975.0,Y
1595658375.6,286046992.9,P
1595658395.5,286046990.7,N
1595658415.3,286046986.4,N
1595658435.1,286046985.1,Y
1595658455.9,286046994.5,P
1595658475.7,286046991.7,N
1595658495.5,286046993.2,N
1595658515.4,286046987.5,Y
1595658535.2,286046997.0,P
1595658555.1,286047002.4,N
1595658556.0,286047002.4,N
1595658575.8,286047005.4,N
1595658595.6,286047001.4,N
1595658615.5,286047000.8,N
1595658635.3,286046997.9,N
1595658655.2,286046992.3,N
1595658675.9,286046991.3,N
1595658695.7,286046988.5,N
1595658715.6,286046988.9,N
1595658735.4,286046989.3,N
1595658755.3,286046990.1,N
1595658775.1,286046987.0,N
1595658776.0,286046987.0,N
1595658795.8,286046988.1,N
1595658815.7,286046985.9,N
1595658835.5,286046984.3,N
1595658855.3,286046981.7,N
1595658875.2,286046977.1,Y
1595658895.0,286046980.8,P
1595658895.9,286046980.8,P
1595658915.8,286046981.5,P
1595658935.6,286046978.5,Y
1595658955.4,286046994.4,P
1595658975.3,286046990.9,N
1595658995.1,286046990.5,N
1595659015.9,286046990.5,N
1595659035.7,286046992.0,N
1595659055.5,286046994.4,N
1595659075.4,286046990.6,N
1595659095.2,286046989.1,Y
1595659115.0,286046994.5,P
1595659115.9,286046994.5,P
1595659135.8,286046990.3,P
1595659155.6,286046986.3,Y
1595659175.5,286047000.6,P
1595659195.3,286047001.4,N
1595659215.1,286047003.4,N
1595659235.9,286047003.9,N
1595659255.7,286047007.1,N
1595659275.6,286047010.0,N
1595659295.4,286047013.0,N
1595659315.2,286047016.4,N
1595659335.1,286047019.9,N
1595659336.0,286047019.9,N
1595659355.8,286047017.2,N
1595659375.6,286047011.9,N
1595659395.5,286047012.1,N
1595659415.3,286047010.5,N
1595659435.2,286047008.1,N
1595659455.9,286047007.4,N
1595659475.7,286047004.4,N
1595659495.6,286047001.2,N
1595659515.4,286046994.1,N
1595659535.2,286046993.0,N
1595659555.1,286046993.9,N
1595659556.0,286046993.9,N
1595659575.8,286046990.1,N
1595659595.7,286046991.1,N
1595659615.5,286046993.2,N
1595659635.3,286046990.3,N
1595659655.2,286046991.1,N
1595659675.0,286046988.2,N
1595659675.9,286046988.2,N
1595659695.8,286046987.2,N
1595659715.6,286046984.0,N
1595659735.4,286046980.6,N
1595659755.3,286046979.4,N
1595659775.1,286046983.4,N
1595659795.9,286046982.9,N
1595659815.7,286046981.0,N
1595659835.5,286046981.8,N
1595659855.4,286046974.2,N
1595659875.2,286046972.6,N
1595659895.0,286046970.3,N
1595659895.9,286046970.3,N
1595659915.8,286046966.8,N
1595659935.6,286046964.1,Y
1595659955.5,286046967.7,P
1595659975.3,286046967.2,P
1595659995.1,286046966.2,P
1595660015.9,286046963.6,Y
1595660035.7,286046987.0,P
1595660055.6,286046985.6,N
1595660075.4,286046983.0,N
1595660095.2,286046979.1,Y
1595660115.1,286046997.4,P
1595660116.0,286046997.4,N
1595660135.8,286046996.7,N
1595660155.7,286046996.0,N
1595660175.5,286046991.8,N
1595660195.3,286046994.6,N
1595660215.2,286046994.5,N
1595660235.0,286046989.7,N
1595660235.9,286046989.7,N
1595660255.7,286046990.8,N
1595660275.6,286046988.6,N
1595660295.4,286046984.5,Y
1595660315.3,286046994.7,P
1595660335.1,286046994.2,P
1595660355.8,286046991.2,P
1595660375.7,286046985.8,Y
1595660395.5,286046991.6,P
